| time (UTC) | temp F | wind direction | speed knots | gust knots | rain 1hr in | rain 24hr in | rain mn in | humidity % | barometer mb |
| 20260506044518 | 69 | 12 | 2.6 | 9.6 | 0.00 | 0.00 | 0.00 | 75 | 1010.3 |
| 20260506043518 | 70 | 302 | 2.6 | 8.7 | 0.00 | 0.00 | 0.00 | 75 | 1010.4 |
| 20260506042518 | 70 | 334 | 3.5 | 9.6 | 0.00 | 0.00 | 0.00 | 74 | 1010.2 |
| 20260506041518 | 71 | 334 | 4.3 | 11.3 | 0.00 | 0.00 | 0.00 | 74 | 1010.2 |
| 20260506040538 | 72 | 350 | 3.5 | 9.6 | 0.00 | 0.00 | 0.00 | 74 | 1010.1 |
| 20260506035518 | 72 | 32 | 3.5 | 9.6 | 0.00 | 0.00 | 0.00 | 73 | 1010.0 |
| 20260506034558 | 73 | 30 | 3.5 | 8.7 | 0.00 | 0.00 | 0.00 | 73 | 1009.6 |
| 20260506033518 | 73 | 41 | 3.5 | 7.0 | 0.00 | 0.00 | 0.00 | 73 | 1009.2 |
| 20260506032518 | 74 | 32 | 3.5 | 9.6 | 0.00 | 0.00 | 0.00 | 72 | 1009.0 |
| 20260506031518 | 74 | 42 | 1.7 | 7.0 | 0.00 | 0.00 | 0.00 | 72 | 1008.9 |
| 20260506030518 | 74 | 46 | 3.5 | 7.8 | 0.00 | 0.00 | 0.00 | 71 | 1008.6 |
| 20260506025518 | 75 | 38 | 4.3 | 9.6 | 0.00 | 0.00 | 0.00 | 73 | 1009.0 |
| 20260506024518 | 75 | 38 | 7.0 | 11.3 | 0.00 | 0.00 | 0.00 | 73 | 1008.4 |
| 20260506023518 | 75 | 335 | 2.6 | 7.8 | 0.00 | 0.00 | 0.00 | 73 | 1008.1 |
| 20260506022518 | 75 | 12 | 3.5 | 8.7 | 0.00 | 0.00 | 0.00 | 72 | 1008.0 |
| 20260506021518 | 76 | 299 | 3.5 | 9.6 | 0.00 | 0.00 | 0.00 | 71 | 1007.8 |
| 20260506020538 | 76 | 315 | 1.7 | 7.8 | 0.00 | 0.00 | 0.00 | 70 | 1007.5 |
| 20260506015517 | 77 | 302 | 3.5 | 7.8 | 0.00 | 0.00 | 0.00 | 70 | 1007.2 |
| 20260506014518 | 78 | 337 | 1.7 | 7.8 | 0.00 | 0.00 | 0.00 | 70 | 1006.9 |
| 20260506013538 | 78 | 40 | 3.5 | 8.7 | 0.00 | 0.00 | 0.00 | 69 | 1006.6 |
| 20260506012538 | 78 | 307 | 2.6 | 7.8 | 0.00 | 0.00 | 0.00 | 69 | 1006.6 |
| 20260506011518 | 79 | 303 | 2.6 | 7.8 | 0.00 | 0.00 | 0.00 | 68 | 1006.7 |
| 20260506010517 | 81 | 304 | 2.6 | 7.0 | 0.00 | 0.00 | 0.00 | 70 | 1006.4 |
| 20260506005538 | 82 | 60 | 0.0 | 7.0 | 0.00 | 0.00 | 0.00 | 78 | 1006.1 |
| 20260506004518 | 83 | 137 | 1.7 | 7.8 | 0.00 | 0.00 | 0.00 | 77 | 1005.9 |
| 20260506003518 | 84 | 125 | 0.9 | 8.7 | 0.00 | 0.00 | 0.00 | 76 | 1005.8 |
| 20260506002518 | 85 | 142 | 3.5 | 11.3 | 0.00 | 0.00 | 0.00 | 73 | 1005.8 |
| 20260506001538 | 87 | 140 | 2.6 | 8.7 | 0.00 | 0.00 | 0.00 | 71 | 1005.8 |
| 20260506000518 | 87 | 138 | 2.6 | 10.4 | 0.00 | 0.00 | 0.00 | 71 | 1005.7 |
| 20260505235517 | 87 | 137 | 2.6 | 8.7 | 0.00 | 0.00 | 0.00 | 71 | 1005.6 |
| 20260505234517 | 86 | 136 | 3.5 | 8.7 | 0.00 | 0.00 | 0.00 | 73 | 1005.6 |
| 20260505233518 | 87 | 139 | 3.5 | 10.4 | 0.00 | 0.00 | 0.00 | 71 | 1005.5 |
| 20260505232517 | 88 | 140 | 4.3 | 11.3 | 0.00 | 0.00 | 0.00 | 70 | 1005.4 |
| 20260505231517 | 89 | 130 | 2.6 | 8.7 | 0.00 | 0.00 | 0.00 | 69 | 1005.3 |
| 20260505230517 | 89 | 128 | 3.5 | 9.6 | 0.00 | 0.00 | 0.00 | 69 | 1005.3 |
| 20260505225538 | 91 | 124 | 3.5 | 8.7 | 0.00 | 0.00 | 0.00 | 66 | 1005.3 |
| 20260505224518 | 93 | 140 | 0.9 | 6.1 | 0.00 | 0.00 | 0.00 | 62 | 1005.2 |
| 20260505223517 | 93 | 160 | 0.0 | 4.3 | 0.00 | 0.00 | 0.00 | 57 | 1005.2 |
| 20260505222517 | 94 | 186 | 0.0 | 7.0 | 0.00 | 0.00 | 0.00 | 55 | 1005.0 |
| 20260505221517 | 95 | 135 | 0.9 | 5.2 | 0.00 | 0.00 | 0.00 | 54 | 1005.1 |
| 20260505220517 | 95 | 127 | 0.0 | 3.5 | 0.00 | 0.00 | 0.00 | 55 | 1005.0 |
| 20260505215517 | 95 | 151 | 0.0 | 4.3 | 0.00 | 0.00 | 0.00 | 56 | 1005.2 |
| 20260505214518 | 95 | 127 | 0.0 | 2.6 | 0.00 | 0.00 | 0.00 | 56 | 1005.3 |
| 20260505213517 | 95 | 132 | 0.0 | 5.2 | 0.00 | 0.00 | 0.00 | 56 | 1005.3 |
| 20260505212518 | 95 | 132 | 0.9 | 3.5 | 0.00 | 0.00 | 0.00 | 55 | 1005.3 |
| 20260505211517 | 96 | 113 | 0.0 | 5.2 | 0.00 | 0.00 | 0.00 | 55 | 1005.6 |
| 20260505210516 | 96 | 124 | 0.0 | 0.9 | 0.00 | 0.00 | 0.00 | 56 | 1005.7 |
| 20260505205517 | 94 | 110 | 0.0 | 3.5 | 0.00 | 0.00 | 0.00 | 59 | 1005.9 |
| 20260505204538 | 94 | 248 | 1.7 | 7.0 | 0.00 | 0.00 | 0.00 | 56 | 1005.8 |
| 20260505203537 | 94 | 192 | 0.9 | 6.1 | 0.00 | 0.00 | 0.00 | 56 | 1006.0 |
| 20260505202537 | 94 | 131 | 0.0 | 7.0 | 0.00 | 0.00 | 0.00 | 59 | 1006.2 |
| 20260505201518 | 94 | 120 | 0.0 | 2.6 | 0.00 | 0.00 | 0.00 | 59 | 1006.3 |
| 20260505200517 | 94 | 240 | 0.9 | 3.5 | 0.00 | 0.00 | 0.00 | 59 | 1006.3 |
| 20260505195517 | 93 | 272 | 0.0 | 6.1 | 0.00 | 0.00 | 0.00 | 60 | 1006.3 |
| 20260505194517 | 92 | 210 | 0.0 | 4.3 | 0.00 | 0.00 | 0.00 | 61 | 1006.4 |
| 20260505193537 | 92 | 238 | 0.9 | 7.0 | 0.00 | 0.00 | 0.00 | 60 | 1006.4 |
| 20260505192517 | 92 | 236 | 1.7 | 7.8 | 0.00 | 0.00 | 0.00 | 61 | 1006.6 |
| 20260505191517 | 92 | 239 | 0.9 | 5.2 | 0.00 | 0.00 | 0.00 | 60 | 1006.6 |
| 20260505190517 | 92 | 229 | 0.9 | 4.3 | 0.00 | 0.00 | 0.00 | 62 | 1006.7 |
| 20260505185517 | 91 | 293 | 0.9 | 7.0 | 0.00 | 0.00 | 0.00 | 64 | 1006.8 |
| 20260505184517 | 91 | 268 | 0.9 | 5.2 | 0.00 | 0.00 | 0.00 | 64 | 1006.9 |
| 20260505183517 | 90 | 260 | 0.9 | 5.2 | 0.00 | 0.00 | 0.00 | 66 | 1007.0 |
| 20260505182517 | 89 | 241 | 2.6 | 7.0 | 0.00 | 0.00 | 0.00 | 65 | 1007.0 |
| 20260505181517 | 88 | 265 | 0.9 | 7.0 | 0.00 | 0.00 | 0.00 | 67 | 1007.1 |
| 20260505180557 | 89 | 223 | 0.9 | 6.1 | 0.00 | 0.00 | 0.00 | 66 | 1007.1 |
| 20260505175517 | 88 | 261 | 1.7 | 6.1 | 0.00 | 0.00 | 0.00 | 69 | 1007.3 |
| 20260505174517 | 86 | 341 | 1.7 | 7.0 | 0.00 | 0.00 | 0.00 | 70 | 1007.2 |
| 20260505173517 | 85 | 49 | 0.9 | 7.0 | 0.00 | 0.00 | 0.00 | 71 | 1007.2 |
| 20260505172517 | 85 | 3 | 0.9 | 8.7 | 0.00 | 0.00 | 0.00 | 72 | 1007.2 |
| 20260505171517 | 84 | 135 | 1.7 | 9.6 | 0.00 | 0.00 | 0.00 | 71 | 1007.2 |
| 20260505170517 | 84 | 3 | 1.7 | 11.3 | 0.00 | 0.00 | 0.00 | 71 | 1007.3 |
| 20260505165517 | 85 | 103 | 0.9 | 6.1 | 0.00 | 0.00 | 0.00 | 71 | 1007.4 |
| 20260505164517 | 84 | 276 | 0.9 | 5.2 | 0.00 | 0.00 | 0.00 | 72 | 1007.3 |
| 20260505163517 | 84 | 26 | 0.9 | 6.1 | 0.00 | 0.00 | 0.00 | 73 | 1007.2 |
| 20260505162517 | 83 | 306 | 0.9 | 5.2 | 0.00 | 0.00 | 0.00 | 74 | 1007.2 |
| 20260505161517 | 82 | 307 | 0.9 | 7.0 | 0.00 | 0.00 | 0.00 | 76 | 1007.2 |
| 20260505160517 | 81 | 273 | 1.7 | 7.8 | 0.00 | 0.00 | 0.00 | 75 | 1007.2 |
| 20260505152517 | 80 | 233 | 1.7 | 10.4 | 0.00 | 0.00 | 0.00 | 78 | 1007.5 |
| 20260505151517 | 79 | 252 | 1.7 | 7.8 | 0.00 | 0.00 | 0.00 | 78 | 1007.5 |
| 20260505150517 | 78 | 164 | 0.9 | 7.0 | 0.00 | 0.00 | 0.00 | 81 | 1007.5 |
| 20260505140537 | 74 | 6 | 0.9 | 4.3 | 0.00 | 0.00 | 0.00 | 87 | 1007.1 |
| 20260505124517 | 70 | 180 | 0.0 | 0.9 | 0.00 | 0.00 | 0.00 | 94 | 1006.9 |
| 20260505123517 | 69 | 134 | 0.9 | 2.6 | 0.00 | 0.00 | 0.00 | 95 | 1006.8 |
| 20260505122537 | 68 | 142 | 0.9 | 3.5 | 0.00 | 0.00 | 0.00 | 96 | 1006.6 |
| 20260505121517 | 68 | 148 | 0.9 | 4.3 | 0.00 | 0.00 | 0.00 | 96 | 1006.5 |
| 20260505120517 | 68 | 143 | 0.9 | 4.3 | 0.00 | 0.00 | 0.00 | 96 | 1006.5 |
| 20260505115517 | 68 | 166 | 0.0 | 3.5 | 0.00 | 0.00 | 0.00 | 96 | 1006.4 |
| 20260505114557 | 67 | 148 | 0.9 | 4.3 | 0.00 | 0.00 | 0.00 | 96 | 1006.2 |
| 20260505113516 | 67 | 141 | 0.9 | 2.6 | 0.00 | 0.00 | 0.00 | 96 | 1006.3 |
| 20260505112537 | 67 | 127 | 0.0 | 1.7 | 0.00 | 0.00 | 0.00 | 96 | 1006.1 |
| 20260505111517 | 67 | 124 | 0.9 | 4.3 | 0.00 | 0.00 | 0.00 | 96 | 1006.1 |
| 20260505110537 | 67 | 0.0 | 1.7 | 0.00 | 0.00 | 0.00 | 95 | 1006.2 | |
| 20260505101516 | 68 | 123 | 0.9 | 2.6 | 0.00 | 0.00 | 0.00 | 95 | 1006.0 |
| 20260505100517 | 68 | 134 | 0.9 | 7.8 | 0.00 | 0.00 | 0.00 | 95 | 1006.2 |
| 20260505095517 | 68 | 138 | 1.7 | 5.2 | 0.00 | 0.00 | 0.00 | 94 | 1006.1 |
| 20260505094516 | 68 | 149 | 1.7 | 7.0 | 0.00 | 0.00 | 0.00 | 94 | 1006.3 |
| 20260505093517 | 68 | 142 | 0.9 | 4.3 | 0.00 | 0.00 | 0.00 | 94 | 1006.3 |
| 20260505092517 | 68 | 135 | 1.7 | 5.2 | 0.00 | 0.00 | 0.00 | 94 | 1006.4 |
| 20260505091516 | 69 | 135 | 0.9 | 8.7 | 0.00 | 0.00 | 0.00 | 93 | 1006.5 |
| 20260505090517 | 69 | 133 | 1.7 | 7.8 | 0.00 | 0.00 | 0.00 | 93 | 1006.5 |
| 20260505085516 | 69 | 116 | 1.7 | 6.1 | 0.00 | 0.00 | 0.00 | 93 | 1006.6 |
| 20260505084517 | 69 | 158 | 0.9 | 7.8 | 0.00 | 0.00 | 0.00 | 93 | 1006.6 |
| 20260505083516 | 69 | 122 | 1.7 | 6.1 | 0.00 | 0.00 | 0.00 | 92 | 1006.5 |
| 20260505082517 | 69 | 113 | 2.6 | 10.4 | 0.00 | 0.00 | 0.00 | 92 | 1006.5 |
| 20260505081537 | 69 | 129 | 2.6 | 8.7 | 0.00 | 0.00 | 0.00 | 92 | 1006.6 |
| 20260505080516 | 70 | 153 | 3.5 | 10.4 | 0.00 | 0.00 | 0.00 | 92 | 1006.7 |
| 20260505075516 | 70 | 142 | 4.3 | 9.6 | 0.00 | 0.00 | 0.00 | 91 | 1006.7 |
| 20260505074516 | 70 | 133 | 3.5 | 8.7 | 0.00 | 0.00 | 0.00 | 91 | 1006.9 |
| 20260505073516 | 70 | 147 | 3.5 | 10.4 | 0.00 | 0.00 | 0.00 | 91 | 1007.0 |
| 20260505072617 | 70 | 140 | 3.5 | 10.4 | 0.00 | 0.00 | 0.00 | 90 | 1007.1 |
| 20260505071517 | 70 | 125 | 2.6 | 7.8 | 0.00 | 0.00 | 0.00 | 90 | 1007.3 |
| 20260505070516 | 70 | 144 | 2.6 | 8.7 | 0.00 | 0.00 | 0.00 | 90 | 1007.5 |
| 20260505065537 | 70 | 151 | 2.6 | 9.6 | 0.00 | 0.00 | 0.00 | 89 | 1007.6 |
| 20260505064516 | 71 | 139 | 1.7 | 8.7 | 0.00 | 0.00 | 0.00 | 88 | 1007.7 |
| 20260505063516 | 71 | 148 | 1.7 | 6.1 | 0.00 | 0.00 | 0.00 | 88 | 1007.9 |
| 20260505062516 | 71 | 149 | 2.6 | 6.1 | 0.00 | 0.00 | 0.00 | 87 | 1007.9 |
| 20260505061536 | 71 | 117 | 1.7 | 9.6 | 0.00 | 0.00 | 0.00 | 87 | 1008.0 |
| 20260505060536 | 71 | 222 | 0.9 | 8.7 | 0.00 | 0.00 | 0.00 | 86 | 1008.1 |
| 20260505055516 | 71 | 143 | 2.6 | 7.8 | 0.00 | 0.00 | 0.00 | 85 | 1007.9 |
| 20260505054516 | 72 | 149 | 2.6 | 9.6 | 0.00 | 0.00 | 0.00 | 85 | 1007.8 |
| 20260505053516 | 72 | 142 | 3.5 | 10.4 | 0.00 | 0.00 | 0.00 | 84 | 1007.8 |
| 20260505052516 | 72 | 141 | 3.5 | 12.2 | 0.00 | 0.00 | 0.00 | 84 | 1007.9 |
| 20260505051516 | 72 | 138 | 2.6 | 10.4 | 0.00 | 0.00 | 0.00 | 83 | 1008.0 |
| 20260505050516 | 72 | 122 | 1.7 | 9.6 | 0.00 | 0.00 | 0.00 | 83 | 1008.1 |